Weather History for Coffeyville, KS

Change the Weather History Date:

Friday, January 10, 2014

  Actual Average Record
Temperature  
Mean Temperature 44 °F -  
Max Temperature 55 °F 41 °F 63 °F (2000)
Min Temperature 34 °F 22 °F 5 °F (1997)
Degree Days  
Heating Degree Days 20    
Moisture  
Dew Point 41 °F    
Average Humidity 91    
Maximum Humidity 100    
Minimum Humidity 54    
Precipitation  
Precipitation 0.00 in - - ()
Sea Level Pressure  
Sea Level Pressure 29.72 in    
Wind  
Wind Speed 10 mph (SSW)    
Max Wind Speed 18 mph    
Max Gust Speed 25 mph    
Visibility 6 miles    
Events Fog , Rain    
Averages and records for this station are not official NWS values.
T = Trace of Precipitation, MM = Missing Value Source: NWS Daily Summary

Daily Weather History Graph

Daily Weather History Graph

Search for Another Location

Airport:

Trip Planner

Search our weather history database for the weather conditions in past years. The results will help you decide how hot, cold, wet, or windy it might be!

Date:

Astronomy

Jan. 10, 2014 Rise Set
Actual Time 7:35 AM CST 5:24 PM CST
Civil Twilight 7:07 AM CST 5:52 PM CST
Nautical Twilight 6:35 AM CST 6:24 PM CST
Astronomical Twilight 6:03 AM CST 6:56 PM CST
Moon 1:26 PM CST (1/10) 2:46 AM CST (1/10)
Length of Visible Light 10h 45m
Length of Day
9h 48m
Waxing Gibbous, 75% of the Moon is Illuminated
Jan 10
Waxing Gibbous
Jan 15
Full
Jan 23
Last Quarter
Jan 30
New
Feb 6
First Quarter

Hourly Weather History & Observations

Time (CST) Temp. Windchill Dew Point Humidity Pressure Visibility Wind Dir Wind Speed Gust Speed Precip Events Conditions
12:00 AM 36.0 °F 29.0 °F 35.1 °F 97% 30.01 in 1.5 mi South 9.2 mph - N/A   Overcast
12:50 AM 35.6 °F 29.9 °F 35.6 °F 100% 29.98 in 2.0 mi SSE 6.9 mph - N/A   Overcast
12:52 AM 36.0 °F 31.1 °F 35.1 °F 97% 29.99 in 2.0 mi South 5.8 mph - N/A   Overcast
1:52 AM 36.0 °F 30.3 °F 36.0 °F 100% 29.96 in 1.8 mi SSE 6.9 mph - N/A   Overcast
2:52 AM 36.0 °F 30.3 °F 36.0 °F 100% 29.94 in 1.8 mi South 6.9 mph - N/A   Overcast
3:52 AM 36.0 °F 30.3 °F 36.0 °F 100% 29.89 in 1.0 mi SSE 6.9 mph - N/A   Overcast
4:50 AM 37.4 °F 31.4 °F 37.4 °F 100% 29.84 in 0.8 mi South 8.1 mph - N/A   Mist
4:52 AM 37.0 °F 30.4 °F 37.0 °F 100% 29.86 in 0.8 mi South 9.2 mph - N/A   Mist
5:52 AM 37.9 °F 30.9 °F 37.9 °F 100% 29.81 in 1.0 mi SSE 10.4 mph - 0.00 in Rain Light Rain
6:40 AM 39.0 °F 32.3 °F 39.0 °F 100% 29.77 in 0.8 mi South 10.4 mph - 0.00 in   Mist
6:52 AM 39.0 °F 32.3 °F 39.0 °F 100% 29.78 in 0.5 mi South 10.4 mph - 0.00 in Fog Fog
7:52 AM 43.0 °F 35.7 °F 42.1 °F 97% 29.75 in 0.8 mi South 15.0 mph 23.0 mph N/A   Mist
8:01 AM 43.0 °F 35.1 °F 43.0 °F 100% 29.74 in 1.0 mi South 17.3 mph - N/A   Mist
8:11 AM 43.0 °F 36.0 °F 43.0 °F 100% 29.72 in 0.5 mi South 13.8 mph - N/A Fog Fog
8:52 AM 44.1 °F 37.1 °F 44.1 °F 100% 29.73 in 0.2 mi South 15.0 mph - N/A Fog Fog
9:52 AM 45.0 °F 37.6 °F 45.0 °F 100% 29.73 in 0.2 mi South 17.3 mph 25.3 mph N/A Fog Fog
10:29 AM 46.0 °F 39.3 °F 46.0 °F 100% 29.70 in 1.2 mi South 16.1 mph 24.2 mph N/A   Overcast
10:36 AM 46.0 °F 38.8 °F 46.0 °F 100% 29.68 in 3.0 mi South 18.4 mph - N/A   Overcast
10:52 AM 46.9 °F - 46.9 °F 100% 29.68 in 7.0 mi South 16.1 mph - N/A   Overcast
11:04 AM 46.9 °F - 46.9 °F 100% 29.66 in 7.0 mi South 17.3 mph - N/A   Overcast
11:52 AM 48.9 °F - 48.9 °F 100% 29.64 in 8.0 mi SSW 16.1 mph 25.3 mph N/A   Overcast
12:52 PM 52.0 °F - 48.9 °F 89% 29.61 in 10.0 mi SW 17.3 mph 23.0 mph N/A   Overcast
1:16 PM 52.0 °F - 50.0 °F 93% 29.58 in 10.0 mi SSW 11.5 mph 20.7 mph N/A   Overcast
1:52 PM 54.0 °F - 50.0 °F 86% 29.57 in 10.0 mi SW 11.5 mph 23.0 mph N/A   Mostly Cloudy
2:02 PM 54.0 °F - 48.9 °F 83% 29.57 in 10.0 mi SW 15.0 mph - N/A   Mostly Cloudy
2:24 PM 54.0 °F - 48.9 °F 83% 29.55 in 10.0 mi SSW 15.0 mph - N/A   Mostly Cloudy
2:50 PM 53.6 °F - 48.2 °F 82% 29.55 in 10.0 mi WSW 11.5 mph - N/A   Mostly Cloudy
2:52 PM 54.0 °F - 48.9 °F 83% 29.56 in 10.0 mi WSW 10.4 mph - N/A   Mostly Cloudy
3:22 PM 54.0 °F - 44.1 °F 69% 29.57 in 10.0 mi WSW 16.1 mph - N/A   Scattered Clouds
3:52 PM 55.0 °F - 43.0 °F 64% 29.58 in 10.0 mi WSW 12.7 mph - N/A   Partly Cloudy
4:52 PM 52.0 °F - 36.0 °F 54% 29.61 in 10.0 mi WSW 12.7 mph - N/A   Clear
5:52 PM 46.0 °F 40.6 °F 36.0 °F 68% 29.65 in 10.0 mi West 11.5 mph - N/A   Clear
6:52 PM 41.0 °F 35.8 °F 33.1 °F 73% 29.68 in 10.0 mi West 8.1 mph - N/A   Clear
7:52 PM 39.0 °F 36.8 °F 33.1 °F 79% 29.68 in 10.0 mi SW 3.5 mph - N/A   Clear
8:52 PM 35.1 °F 31.0 °F 32.0 °F 89% 29.68 in 8.0 mi South 4.6 mph - N/A   Clear
9:52 PM 34.0 °F 28.8 °F 32.0 °F 92% 29.69 in 8.0 mi South 5.8 mph - N/A   Clear
10:52 PM 35.1 °F 31.0 °F 30.9 °F 85% 29.70 in 10.0 mi West 4.6 mph - N/A   Clear
11:52 PM 34.0 °F 28.8 °F 28.9 °F 82% 29.72 in 10.0 mi NW 5.8 mph - N/A   Clear